Location: Austin
(30.3000°N, 97.7500°W)
Time: 00:14:27
(UTC-06:00)

NOSS 3-4 (A) - Pass Details

Date: 04 November 2025
Orbit: 771 x 1440 km, 63.4° (Epoch: 11 November)

Event Time Altitude Azimuth Distance (km) Brightness Sun altitude
Rises 19:35:22 0° 337° (NNW) 3,860 6.9 -25.1°
Reaches altitude 10° 19:37:58 10° 343° (NNW) 2,996 6.2 -25.6°
Enters shadow 19:45:00 52° 57° (ENE) 1,526 4.1 -27.1°
